SCP
0 0 0 0 0 0 0 0 0 0 0 0 0 0 0 0 0 0 0 0 0 0 0 0 0 0 0 0 0 0 0 0 0 0 0 0 0 0 0 0 0 0 0 0
0 0 0 0 0 0 0 0 0 0 0 0 0 0 0 0 0 0 0 0 0 0 0 0 0 0 0 0 0 0 0 0 0 0 0 0 0 0 0 0 0 0 0 0
0 0 0 0 0 0 0 0 0 0 0 0 0 0 0 0 0 0 0 0 0 0 0 0 0 0 0 0 0 0 0 0 0 0 0 0 0 0 0 0 0 0 0 0
0 0 0 0 0 0 0 0 0 0 0 0 0 0 0 0 0 0 0 0 0 0 0 0 0 0 0 0 0 0 0 0 0 0 0 0 0 0 0 0 0 0 0 0
0 0 0 0 0 0 0 0 0 0 0 0 0 0 0 0 0 0 0 0 0 0 0 0 0 0 0 0 0 0 0 0 0 0 0 0 0 0 0 0 0 0 0 0
0 0 0 0 0 0 0 0 0 0 0 0 0 0 0 0 0 0 0 0 0 0 0 0 0 0 0 0 0 0 0 0 0 0 0 0 0 0 0 0 0 0 0 0
0 0 0 0 0 0 0 0 0 0 0 0 0 0 0 0 0 0 0 0 0 0 0 0 0 0 0 0 0 0 0 0 0 0 0 0 0 0 0 0 0 0 0 0
0 0 0 0 0 0 0 0 0 0 0 0 0 0 0 0 0 0 0 0 0 0 0 0 0 0 0 0 0 0 0 0 0 0 0 0 0 0 0 0 0 0 0 0
0 0 0 0 0 0 0 0 0 0 0 0 0 0 0 0 0 0 0 0 0 0 0 0 0 0 0 0 0 0 0 0 0 0 0 0 0 0 0 0 0 0 0 0
0 0 0 0 0 0 0 0 0 0 0 0 0 0 0 0 0 0 0 0 0 0 0 0 0 0 0 0 0 0 0 0 0 0 0 0 0 0 0 0 0 0 0 0
0 0 0 0 0 0 0 0 0 0 0 0 0 0 0 0 0 0 0 0 0 0 0 0 0 0 0 0 0 0 0 0 0 0 0 0 0 0 0 0 0 0 0 0
0 0 0 0 0 0 0 0 0 0 0 0 0 0 0 0 0 0 0 0 0 0 0 0 0 0 0 0 0 0 0 0 0 0 0 0 0 0 0 0 0 0 0 0
0 0 0 0 0 0 0 0 0 0 0 0 0 0 0 0 0 0 0 0 0 0 0 0 0 0 0 0 0 0 0 0 0 0 0 0 0 0 0 0 0 0 0 0
0 0 0 0 0 0 0 0 0 0 0 0 0 0 0 0 0 0 0 0 0 0 0 0 0 0 0 0 0 0 0 0 0 0 0 0 0 0 0 0 0 0 0 0
0 0 0 0 0 0 0 0 0 0 0 0 0 0 0 0 0 0 0 0 0 0 0 0 0 0 0 0 0 0 0 0 0 0 0 0 0 0 0 0 0 0 0 0
0 0 0 0 0 0 0 0 0 0 0 0 0 0 0 0 0 0 0 0 0 0 0 0 0 0 0 0 0 0 0 0 0 0 0 0 0 0 0 0 0 0 0 0
0 0 0 0 0 0 0 0 0 0 0 0 0 0 0 0 0 0 0 0 0 0 0 0 0 0 0 0 0 0 0 0 0 0 0 0 0 0 0 0 0 0 0 0
0 0 0 0 0 0 0 0 0 0 0 0 0 0 0 0 0 0 0 0 0 0 0 0 0 0 0 0 0 0 0 0 0 0 0 0 0 0 0 0 0 0 0 0
0 0 0 0 0 0 0 0 0 0 0 0 0 0 0 0 0 0 0 0 0 0 0 0 0 0 0 0 0 0 0 0 0 0 0 0 0 0 0 0 0 0 0 0
0 0 0 0 0 0 0 0 0 0 0 0 0 0 0 0 0 0 0 0 0 0 0 0 0 0 0 0 0 0 0 0 0 0 0 0 0 0 0 0 0 0 0 0
0 0 0 0 0 0 0 0 0 0 0 0 0 0 0 0 0 0 0 0 0 0 0 0 0 0 0 0 0 0 0 0 0 0 0 0 0 0 0 0 0 0 0 0
0 0 0 0 0 0 0 0 0 0 0 0 0 0 0 0 0 0 0 0 0 0 0 0 0 0 0 0 0 0 0 0 0 0 0 0 0 0 0 0 0 0 0 0
0 0 0 0 0 0 0 0 0 0 0 0 0 0 0 0 0 0 0 0 0 0 0 0 0 0 0 0 0 0 0 0 0 0 0 0 0 0 0 0 0 0 0 0
0 0 0 0 0 0 0 0 0 0 0 0 0 0 0 0 0 0 0 0 0 0 0 0 0 0 0 0 0 0 0 0 0 0 0 0 0 0 0 0 0 0 0 0
0 0 0 0 0 0 0 0 0 0 0 0 0 0 0 0 0 0 0 0 0 0 0 0 0 0 0 0 0 0 0 0 0 0 0 0 0 0 0 0 0 0 0 0
0 0 0 0 0 0 0 0 0 0 0 0 0 0 0 0 0 0 0 0 0 0 0 0 0 0 0 0 0 0 0 0 0 0 0 0 0 0 0 0 0 0 0 0
0 0 0 0 0 0 0 0 0 0 0 0 0 0 0 0 0 0 0 0 0 0 0 0 0 0 0 0 0 0 0 0 0 0 0 0 0 0 0 0 0 0 0 0
Wind_Speed
7 6 4 6 7 8 9 9 10 10 7 8 11 11 9 7 5 4 2 2 3 4 5 6 6 6 7 8 8 9 9 10 10 10 10 10 11 11 11 12 14 13 15 17
5 3 4 6 8 8 9 7 10 10 12 4 6 6 6 6 5 4 2 2 3 4 5 6 6 7 7 7 8 8 8 9 10 11 11 11 11 11 12 12 12 13 14 16
5 7 7 9 7 8 7 9 9 10 8 7 6 9 9 7 6 4 3 2 3 3 4 5 6 6 7 8 7 8 8 9 10 10 11 12 12 12 12 11 11 12 13 14
3 7 5 7 2 6 7 9 9 7 6 11 7 5 5 5 7 5 4 1 1 3 4 4 5 5 6 7 7 7 8 9 9 10 10 11 10 10 9 8 9 9 10 13
1 3 12 10 5 5 5 10 8 9 7 7 8 5 2 5 6 6 4 3 1 1 2 4 5 5 6 6 7 7 8 9 10 9 10 10 10 10 8 8 7 8 9 11
3 2 9 8 2 2 3 9 6 10 12 11 11 4 5 9 7 6 5 3 2 0 2 3 5 5 6 6 7 8 9 9 9 9 10 9 10 8 7 7 8 9 10 9
5 7 14 6 5 5 3 9 5 10 12 14 12 6 8 10 7 6 5 4 2 1 2 3 4 5 6 6 7 8 8 8 9 9 9 8 9 7 8 8 8 8 8 9
5 5 15 7 10 12 12 2 6 8 9 9 7 9 11 9 8 7 5 3 2 2 2 3 4 5 5 6 7 7 7 7 8 8 8 9 8 8 7 7 6 7 7 8
14 14 6 12 12 8 6 7 7 8 7 10 10 9 10 8 8 7 6 4 2 2 2 3 4 4 4 6 6 6 7 7 7 7 6 7 6 7 7 6 4 5 6 6
8 16 9 11 10 5 7 8 7 8 10 11 10 10 9 9 8 6 5 4 3 2 2 3 4 4 3 5 6 6 6 7 6 6 6 6 6 6 5 6 5 4 5 5
10 11 7 8 11 10 8 7 8 7 8 10 12 10 9 8 8 6 6 4 4 3 1 2 3 4 4 5 5 5 6 6 6 7 5 5 6 6 7 5 8 7 4 4
13 12 9 8 7 13 12 11 12 12 9 8 10 11 10 8 7 6 6 5 4 3 1 1 2 3 5 5 5 4 5 5 5 5 5 5 5 6 11 12 16 16 15 12
9 4 7 3 6 12 12 13 13 13 13 10 8 10 11 8 7 7 6 5 5 3 2 1 1 3 4 5 5 4 4 5 4 5 5 5 6 6 7 10 14 14 15 16
7 4 4 6 8 9 10 11 10 8 8 11 10 10 10 7 7 7 7 6 5 4 3 2 1 3 4 4 4 4 4 6 6 4 5 5 5 6 6 8 9 8 10 14
11 12 7 5 8 9 10 11 11 10 10 9 8 10 11 10 9 8 6 6 5 4 4 2 1 3 4 4 4 4 4 4 4 4 4 5 5 5 6 7 8 8 8 9
6 6 6 8 12 13 12 13 15 15 13 11 11 11 10 9 8 7 6 6 6 5 5 3 3 3 4 4 4 3 3 9 8 4 5 5 5 5 6 7 8 8 8 8
10 10 11 10 14 15 17 16 17 17 15 15 14 11 10 9 7 7 7 6 6 5 5 4 4 3 4 3 3 3 3 5 9 6 4 5 4 5 6 7 8 9 8 11
18 15 16 15 18 18 17 13 13 15 15 14 13 12 13 13 12 10 8 6 5 4 5 6 5 4 3 3 2 2 3 3 3 4 4 5 5 5 5 6 8 9 8 10
14 12 13 13 17 18 17 16 15 14 13 15 16 15 13 11 9 7 7 7 7 6 6 6 6 3 2 4 2 0 2 3 3 4 4 7 6 5 5 6 8 8 8 9
13 12 13 13 14 14 15 14 14 14 14 15 14 12 11 10 9 9 8 7 6 5 5 6 5 4 3 4 1 1 2 3 3 3 4 4 4 5 5 7 8 8 8 9
13 13 14 15 14 13 14 16 17 17 15 16 16 16 14 11 10 9 8 6 6 7 7 8 5 4 3 3 2 1 1 2 3 3 4 4 5 5 6 7 8 9 9 9
13 14 15 15 15 14 13 14 15 16 16 15 14 12 12 12 11 8 7 5 5 11 7 4 4 6 6 4 3 2 1 1 2 3 3 4 4 5 6 7 7 8 9 9
11 12 14 15 15 13 13 13 15 16 17 18 17 17 16 13 11 10 8 7 5 11 8 5 8 10 7 4 3 3 2 1 2 2 3 3 4 4 5 6 6 7 8 8
12 13 13 12 13 14 16 15 14 12 13 13 13 14 14 11 8 7 3 11 16 14 7 9 13 12 8 4 4 3 3 2 2 2 2 3 3 4 4 5 6 7 8 10
13 13 15 16 16 13 13 13 12 10 11 9 10 11 10 8 8 9 7 8 15 14 6 10 15 12 6 4 4 4 4 3 3 2 2 3 3 4 5 5 6 7 7 8
13 13 13 12 10 10 11 12 12 11 11 11 10 10 9 7 6 8 8 8 10 13 8 5 5 7 5 5 5 5 4 3 2 2 3 3 4 4 5 5 7 7 7 8
10 9 9 8 8 10 11 12 13 13 13 13 13 12 11 10 9 9 10 9 8 7 7 6 5 5 5 5 5 5 4 4 4 3 3 3 3 3 4 6 6 6 7 8
Wind_Direction
261 276 267 244 225 199 196 202 217 245 241 231 197 190 191 187 187 178 158 54 26 3 343 341 338 333 330 326 329 334 334 337 337 333 328 327 327 325 326 330 331 327 328 330
295 327 306 271 243 219 220 220 238 262 269 231 149 149 168 179 184 183 146 52 21 355 343 341 334 329 329 328 330 332 332 333 333 336 335 333 332 334 335 334 331 332 332 334
287 314 339 294 246 193 211 214 204 227 235 150 160 185 185 183 187 173 120 64 12 337 328 326 325 326 328 327 326 331 330 331 333 334 333 333 336 338 338 334 335 336 336 340
314 355 289 252 181 195 220 241 218 226 191 178 172 155 149 167 176 158 129 109 332 314 318 321 325 329 326 326 330 331 330 331 333 333 331 331 336 338 336 333 336 336 336 344
91 304 281 290 233 202 215 274 217 196 167 136 108 102 194 194 171 155 143 144 184 268 293 325 335 334 334 333 333 335 338 337 335 335 335 336 340 338 335 333 333 337 345 348
140 226 256 255 163 129 74 280 223 170 162 155 151 184 220 173 157 143 139 138 145 298 343 353 340 342 347 340 341 345 342 337 336 339 338 338 339 336 338 336 341 347 350 350
184 235 264 249 149 132 193 256 178 164 165 166 187 188 150 145 144 142 139 136 129 75 24 348 337 354 354 344 343 337 335 335 340 342 339 346 339 336 341 343 339 342 348 349
165 212 257 190 148 190 217 157 154 160 160 162 146 122 135 143 144 144 142 141 133 83 24 348 351 6 357 342 328 328 332 337 338 339 345 355 336 334 337 339 335 339 347 351
193 220 238 175 199 207 160 167 172 162 159 141 138 148 151 151 150 150 153 156 145 105 40 356 356 10 355 324 323 330 332 332 330 336 341 342 334 332 336 341 338 343 350 350
245 260 244 220 231 207 185 180 167 153 151 151 150 153 153 155 155 156 160 159 148 115 58 359 346 355 334 316 324 333 331 327 330 337 340 337 342 342 337 337 338 334 332 333
254 268 285 252 219 196 174 150 140 139 151 155 146 152 159 158 160 164 162 158 150 138 99 336 335 341 327 319 324 334 329 327 330 341 332 332 339 339 342 328 354 352 328 310
232 225 204 238 208 170 163 165 159 148 145 150 154 157 156 158 160 161 161 158 156 157 165 304 330 333 320 315 322 335 335 330 321 328 334 335 326 331 348 355 356 356 352 352
225 208 197 241 171 171 171 164 161 159 157 157 155 156 155 154 161 160 161 166 169 174 182 206 320 322 311 311 323 339 329 316 313 333 330 331 332 331 329 335 345 349 349 346
218 160 209 192 183 171 154 148 143 133 139 150 150 154 152 146 155 166 176 179 177 178 178 190 291 303 298 307 321 331 327 322 332 313 315 317 319 320 320 323 326 326 332 335
219 203 207 162 140 138 138 140 143 147 146 149 153 159 160 160 171 180 180 180 176 174 178 197 265 287 293 307 322 326 325 310 310 311 313 314 317 324 325 324 323 322 322 325
193 171 150 149 160 159 157 163 169 169 165 164 168 173 171 164 163 168 179 182 177 185 191 206 247 271 290 306 318 319 316 335 343 332 323 323 323 330 335 334 332 330 329 323
165 184 180 180 180 181 184 183 179 172 169 172 175 166 156 153 162 183 194 191 188 192 197 209 229 269 286 302 310 309 312 322 342 337 317 314 318 330 333 336 338 337 334 335
210 199 184 183 183 186 189 183 174 170 174 173 159 159 168 175 186 191 185 177 183 202 220 211 223 254 267 286 293 297 309 310 312 312 313 321 342 334 329 337 338 335 336 341
211 196 185 180 179 181 181 180 177 171 162 158 165 176 182 184 181 171 166 174 187 204 213 204 222 224 267 285 336 217 316 318 321 322 318 338 348 331 337 339 337 331 336 344
200 186 177 175 172 173 175 172 165 163 164 164 167 170 177 182 175 169 174 194 203 195 183 194 208 216 241 270 305 169 317 322 328 329 329 331 331 335 339 341 340 335 339 341
189 178 173 172 172 171 169 165 165 167 167 169 173 179 181 178 173 171 178 206 218 197 195 209 197 198 230 234 153 145 320 324 328 328 329 330 330 334 338 340 341 340 340 338
180 177 175 169 167 169 166 166 168 165 165 173 176 170 168 171 177 184 201 202 185 182 182 195 192 213 222 181 152 160 192 308 316 317 323 325 327 330 330 333 336 337 335 330
174 174 171 170 168 162 158 166 169 169 172 176 177 177 179 179 179 182 199 200 182 190 179 187 202 212 203 157 162 169 185 252 297 306 313 314 314 317 318 322 325 327 324 324
167 165 162 154 148 155 168 174 171 174 176 178 180 177 173 171 183 196 185 175 181 189 186 197 203 206 186 162 172 178 192 222 260 275 293 302 303 304 307 311 317 320 320 321
162 157 154 159 168 176 171 161 159 161 166 172 175 175 178 177 177 179 175 171 179 179 178 201 203 200 177 175 183 188 197 216 227 228 265 293 299 303 304 308 315 317 316 316
166 170 172 176 171 162 160 164 171 173 175 176 179 180 179 172 159 159 167 171 181 180 177 192 204 194 175 185 192 195 199 216 242 248 258 274 288 297 300 306 309 310 310 310
149 153 153 157 164 164 167 173 176 178 180 179 176 176 176 174 172 171 171 173 179 179 177 186 191 187 187 191 195 200 203 207 214 222 238 254 269 281 291 297 300 302 303 306